Cloud_Cover
62 78 82 59 100 100 100 100 100 100 100 100 100 100 100 100 100 95 64 100 99 97 100 100 100 100 100 16 5 2 1 23
42 100 30 100 100 100 100 100 100 100 100 100 100 100 100 100 100 57 78 98 80 100 100 100 100 100 100 4 4 21 95 65
100 100 100 100 100 100 100 100 100 100 100 100 100 89 98 100 99 89 100 100 100 100 100 100 100 100 90 42 94 100 100 44
87 100 100 100 100 100 100 100 100 100 100 100 100 100 86 100 100 100 100 100 100 100 100 100 100 72 99 78 97 99 100 100
12 68 100 100 100 100 100 100 100 100 100 100 100 100 100 100 100 100 100 99 100 100 100 82 100 100 100 80 100 100 100 100
100 100 72 100 100 100 100 100 100 100 100 100 100 100 100 100 100 100 100 100 100 100 100 100 100 100 100 100 100 100 100 92
97 100 90 82 99 100 100 100 100 100 100 100 100 100 100 100 100 100 100 100 100 100 100 100 100 100 100 100 100 99 100 100
96 76 100 100 93 100 100 100 100 100 100 100 100 100 100 100 100 100 100 100 100 100 100 100 100 100 100 100 64 100 85 100
100 97 100 100 100 99 100 100 100 100 100 100 100 100 100 100 100 100 100 100 100 100 100 100 100 100 100 56 86 81 99 96
100 100 98 100 100 100 96 87 100 100 100 100 100 100 100 100 100 100 100 100 100 100 100 88 100 92 76 61 99 85 100 100
67 100 100 100 100 100 100 100 96 100 100 100 100 100 100 100 100 100 100 96 100 100 100 95 88 97 95 100 100 100 81 76
99 100 100 100 100 100 100 100 100 100 100 100 100 100 100 100 100 100 100 100 100 100 100 100 100 100 100 100 100 74 16 44
100 100 100 100 100 100 100 100 100 100 100 100 100 100 100 100 100 100 100 100 100 100 100 100 100 100 100 95 97 93 31 64
36 100 100 100 100 100 100 100 100 100 100 100 100 100 100 98 100 100 100 100 100 100 100 100 100 100 100 100 100 100 99 100
22 37 100 100 100 100 100 100 100 100 100 100 100 100 100 100 100 100 100 100 100 100 100 100 100 100 100 100 100 100 100 98
0 5 100 49 100 100 100 100 100 98 99 88 100 100 100 100 100 100 100 100 100 100 100 100 100 100 100 100 100 100 100 100
0 3 100 95 99 100 100 100 100 100 100 100 100 100 100 100 100 100 100 100 100 100 100 100 100 100 100 100 100 100 100 100
0 0 14 100 100 100 100 100 100 100 95 100 100 100 100 100 100 100 100 100 100 100 100 100 100 100 100 100 100 100 100 100
0 0 7 37 100 98 45 62 70 50 93 100 99 99 100 100 100 100 100 100 100 100 100 100 100 100 100 100 100 100 100 100
0 2 0 0 32 82 83 81 100 82 92 100 20 83 91 100 100 100 100 100 100 100 100 100 100 100 100 100 100 100 100 100